Location: Oshawa
(43.9000°N, 78.8670°W)
Time: 23:51:04
(UTC-04:00)

Cosmos 1707 Rocket - Visible Passes

Search period start: 28 June 2016 00:00
Search period end: 08 July 2016 00:00
Orbit: 604 x 633 km, 82.5° (Epoch: 28 June)

Date Brightness Start Highest point End Pass type
(mag) Time Alt. Az. Time Alt. Az. Time Alt. Az.
28 Jun 4.2 21:47:38 10° N 21:51:44 38° ENE 21:55:46 10° SE visible
28 Jun 5.8 23:26:12 10° NW 23:29:17 19° W 23:32:23 10° SW visible
29 Jun 3.5 22:04:42 10° N 22:09:05 72° E 22:13:15 11° SSE visible
29 Jun 6.4 23:45:28 10° WNW 23:46:17 10° W 23:47:05 10° W visible
30 Jun 4.0 22:22:02 10° NNW 22:26:20 61° W 22:30:39 10° S visible
01 Jul 5.1 22:39:36 10° NNW 22:43:31 33° W 22:47:25 10° SSW visible
02 Jul 6.0 22:57:34 10° NW 23:00:36 18° W 23:03:36 10° SW visible
03 Jul 3.6 21:36:00 10° N 21:40:24 75° E 21:44:47 10° SSE visible
04 Jul 4.2 21:53:20 10° NNW 21:57:39 58° W 22:01:58 10° S visible
05 Jul 5.3 22:10:56 10° NNW 22:14:49 31° W 22:18:43 10° SSW visible
06 Jul 6.2 22:28:57 10° NW 22:31:53 18° W 22:34:50 10° SW visible
